This demonstration page uses our WeatherBlox Daily Observations layout. Learn more.

Left ArrowRight Arrow

39.01783, -85.05884

Hourly Observations for June 5, 2015

Temp ( °F °C ) Dew Point ( °F °C ) Humidity (%) Winds ( mph kmh ) Pressure ( in mb ) Visibility ( mi km ) Precip ( " mm )
12:52 am 00:52 Mostly Clear 66 18.9 58 14.4 75 75 N N/A 30.02 1017 9 14 N/A
1:52 am 01:52 Clear 61 16.1 58 14.4 90 90 N N/A 30.02 1017 7 11 N/A
2:52 am 02:52 Clear 60 15.6 58 14.4 93 93 N N/A 30.02 1017 7 11 N/A
3:52 am 03:52 Clear with Mist and Fog 56 13.3 55 12.8 97 97 N N/A 30.03 1017 6 10 N/A
4:52 am 04:52 Clear with Mist and Fog 57 13.9 55 12.8 93 93 N N/A 30.03 1017 6 10 N/A
5:52 am 05:52 Mostly Clear with Mist and Fog 59 15 57 13.9 93 93 S 3 6 30.02 1017 5 8 N/A
6:52 am 06:52 Partly Cloudy with Mist and Fog 56 13.3 55 12.8 97 97 S 5 7 30.03 1017 6 10 N/A
8:52 am 08:52 Mostly Cloudy 69 20.6 58 14.4 68 68 W 7 11 30.06 1018 8 13 N/A
9:52 am 09:52 Mostly Cloudy 72 22.2 60 15.6 66 66 SW 3 6 30.04 1017 8 13 N/A
10:52 am 10:52 Mostly Cloudy 77 25 59 15 54 54 W 6 9 30.04 1017 9 14 N/A
11:52 am 11:52 Partly Cloudy 79 26.1 60 15.6 52 52 W 7 11 30.04 1017 10 16 N/A
12:52 pm 12:52 Partly Cloudy 81 27.2 59 15 47 47 VRB 6 9 30.01 1016 10 16 N/A
2:52 pm 14:52 Mostly Cloudy 84 28.9 61 16.1 46 46 W 10 17 30.00 1016 10 16 N/A
3:52 pm 15:52 Mostly Cloudy 85 29.4 61 16.1 45 45 N N/A 29.98 1015 10 16 N/A
4:52 pm 16:52 Mostly Cloudy 84 28.9 61 16.1 46 46 WSW 6 9 29.97 1015 10 16 N/A
5:52 pm 17:52 Mostly Cloudy 84 28.9 61 16.1 46 46 WSW 6 9 29.96 1014 10 16 N/A
6:52 pm 18:52 Partly Cloudy 83 28.3 61 16.1 48 48 WSW 7 11 29.94 1014 10 16 N/A
7:52 pm 19:52 Partly Cloudy 80 26.7 62 16.7 54 54 W 6 9 29.93 1014 10 16 N/A
8:52 pm 20:52 Mostly Cloudy 77 25 62 16.7 60 60 N N/A 29.93 1014 10 16 N/A
9:11 pm 21:11 Mostly Cloudy with Thunderstorms 79 26 61 16 54 54 VRB 7 11 29.94 1014 10 16 N/A
9:42 pm 21:42 Mostly Cloudy 72 22 64 18 78 78 N N/A 29.97 1015 10 16 N/A
9:52 pm 21:52 Mostly Cloudy 72 22.2 64 17.8 76 76 E 6 9 29.96 1015 10 16 0.03 0.76
10:52 pm 22:52 Partly Cloudy 68 20 66 18.9 93 93 W 5 7 29.97 1015 7 11 N/A
11:52 pm 23:52 Clear 68 20 65 18.3 90 90 N N/A 29.98 1015 7 11 N/A

Powered by AerisWeather